Back to catalog

HULIANWANG DIGUI-57

AliveCommunicationsLEO
NORAD 65114·PAYLOAD·🇨🇳 China

Launched Aug 4, 2025 from Wenchang Space Launch Site

Loading…

Next Passes (next 24 hours)

TLE

FreshSource: Space-Track

Epoch: Sep 14, 2026, 15:11 UTC

1 65114U 25168J   26257.63320912 -.00000082  00000-0  90274-4 0  9994
2 65114  50.0036   4.5200 0008769  12.4360 347.6727 13.29330467 54609

Track HULIANWANG DIGUI-57 in real time with AllMySat

Download on the App Store